Regional Weather Roundup
Issued by NWS

Home | Current Version | Previous Version | Graphics & Text | Print | Product List | Glossary Off
Versions: 1 2 3 4 5 6 7 8 9 10 11 12 13 14 15 16 17 18 19 20 21 22 23 24 25 26 27 28 29 30 31 32 33 34 35 36 37 38 39 40 41 42 43 44 45 46 47 48 49 50

568
ASUS43 KMKX 191020
RWRWI

WISCONSIN REGIONAL WEATHER ROUNDUP
NATIONAL WEATHER SERVICE MILWAUKEE/SULLIVAN WI
400 AM CST MON FEB 19 2018

NOTE: "FAIR" INDICATES FEW OR NO CLOUDS BELOW 12,000 FEET WITH NO
SIGNIFICANT WEATHER AND/OR OBSTRUCTIONS TO VISIBILITY.

WIZ001-002-006>008-014>016-023>028-191100-
NORTHWEST WISCONSIN

CITY           SKY/WX    TMP DP  RH WIND       PRES   REMARKS
SUPERIOR ARPT  CLOUDY    17  10  76 NE7G16    29.99S WCI   7
ASHLAND        CLOUDY    19  17  92 NE15G23   29.96S FOG     WCI   5
HAYWARD        CLOUDY    20  17  88 N18G28    29.86R WCI   5
SIREN          LGT SNOW  22  19  88 NE13G23   29.88R WCI   9
CUMBERLAND     CLOUDY    23  19  86 NE20      29.82R WCI   8
RICE LAKE      CLOUDY    26  23  89 N16G24    29.83R WCI  13
CHETEK         CLOUDY    29  25  87 N3        29.80R
LADYSMITH      CLOUDY    30  25  83 N10       29.83R WCI  21
EAU CLAIRE     MOCLDY    26  24  92 N5        29.78R WCI  20
MENOMONIE      FAIR      28  24  82 NW8       29.80R WCI  20
NEW RICHMOND   CLOUDY    26  21  82 N16       29.83R WCI  13
OSCEOLA        CLOUDY    26  21  83 N9G16     29.88R WCI  16
$$

WIZ003>005-009-010-017-018-191100-
NORTH CENTRAL WISCONSIN

CITY           SKY/WX    TMP DP  RH WIND       PRES   REMARKS
MANITOWISH WTR CLOUDY    20  20 100 N6G16     29.84R WCI  12
ARBOR VITAE    CLOUDY    28  23  84 N9G17     29.80R WCI  19
WOODRUFF       CLOUDY    28  23  84 N9G17     29.80R WCI  19
RHINELANDER    CLOUDY    27  24  89 CALM      29.79R
EAGLE RIVER    CLOUDY    29  23  78 N12       29.79R WCI  19
LAND O LAKES   CLOUDY    24  23  95 N7        29.83R WCI  16
PHILLIPS       CLOUDY    27  24  89 N13       29.80R WCI  16
TOMAHAWK       MOCLDY    25  23  92 CALM      29.79R
MEDFORD        FAIR      19  18  95 NE3       29.76R FOG
MERRILL        FAIR      22  22  99 CALM      29.79R FOG
$$

WIZ029-030-035-036-043>047-191100-
CENTRAL WISCONSIN

CITY           SKY/WX    TMP DP  RH WIND       PRES   REMARKS
WAUSAU         FAIR      24  23  96 CALM      29.76R FOG
MOSINEE        FAIR      27  27 100 E6        29.78S FOG     WCI  20
MARSHFIELD     FAIR      23  22  96 NE5       29.74S FOG     WCI  17
STEVENS POINT  FAIR      20  20 100 N3        29.78S FOG
WAUPACA        FAIR      28  26  91 CALM      29.78F FOG
WAUTOMA        FAIR      24  22  91 CALM      29.78F
WISC RAPIDS    FAIR      25  22  88 CALM      29.77S
CAMP DOUGLAS   CLOUDY    37  30  77 CALM      29.74F
$$

WIZ011>013-019>022-031-037>040-048>050-191100-
NORTHEAST WISCONSIN

CITY           SKY/WX    TMP DP  RH WIND       PRES   REMARKS
ANTIGO         FAIR      20  19  98 CALM      29.78S FOG
SHAWANO        FAIR      27  24  91 CALM      29.80F
OCONTO         CLOUDY    30  28  92 CALM      29.82S
STURGEON BAY   NOT AVBL
GREEN BAY      CLOUDY    35  28  75 CALM      29.80F
MANITOWOC      CLOUDY    34  32  92 SE3       29.81F
APPLETON       CLOUDY    32  27  80 S5        29.77F WCI  27
CLINTONVILLE   FAIR      24  22  93 NE3       29.79F FOG
OSHKOSH        CLOUDY    37  31  78 SW7       29.78F WCI  32
$$

WIZ032>034-041-042-053>061-191100-
SOUTHWEST WISCONSIN

CITY           SKY/WX    TMP DP  RH WIND       PRES   REMARKS
LA CROSSE      FAIR      36  29  75 CALM      29.75R
SPARTA         FAIR      34  29  82 CALM      29.76R
VIROQUA        CLOUDY    36  32  85 SE5       29.73S WCI  32
BOSCOBEL       CLOUDY    35  30  82 CALM      29.76S
PRAIRIE DU CHI CLOUDY    38  29  69 E5        29.75S WCI  35
PLATTEVILLE    FAIR      36  33  88 SE7       29.77S WCI  31
$$

WIZ056-057-062-063-064-067-068-191100-
SOUTH CENTRAL WISCONSIN

CITY           SKY/WX    TMP DP  RH WIND       PRES   REMARKS
REEDSBURG      CLOUDY    37  31  79 S6        29.76S WCI  32
BARABOO/DELLS  CLOUDY    38  30  74 S5        29.77R WCI  34
LONE ROCK      NOT AVBL
MINERAL POINT  CLOUDY    36  36 100 SE8       29.77R WCI  29
MADISON        CLOUDY    35  31  85 S6        29.81R WCI  30
MIDDLETON      CLOUDY    38  33  82 S5        29.80R WCI  34
WATERTOWN      CLOUDY    36  33  90 S3        29.81R
MONROE         CLOUDY    36  32  87 S9        29.79R WCI  29
JANESVILLE     CLOUDY    37  34  87 S7        29.81R WCI  32
$$

WIZ051-052-058>065-066-070>072-191100-
SOUTHEAST WISCONSIN

CITY           SKY/WX    TMP DP  RH WIND       PRES   REMARKS
MILWAUKEE      CLOUDY    39  33  79 S6        29.82F WCI  35
WAUKESHA       CLOUDY    36  32  87 S3        29.82F
MILWAUKEE/TIMM CLOUDY    36  30  80 S6        29.83S WCI  31
RACINE         CLOUDY    40  33  76 S7        29.85S
BURLINGTON     CLOUDY    38  32  80 S9        29.82F WCI  31
KENOSHA        CLOUDY    41  33  73 SW9       29.83S
FOND DU LAC    CLOUDY    39  30  70 S8        29.78F WCI  33
SHEBOYGAN      CLOUDY    34  31  88 S5        29.81F WCI  30
WEST BEND      CLOUDY    36  32  87 CALM      29.81S
JUNEAU         CLOUDY    35  31  87 SE6       29.80F WCI  30
$$

LSZ147-162-191100-
LAKE SUPERIOR

STATION/POSITION TIME  TEMP    WIND        PRES    WAVE
                       AIR SEA DIR/SP/G            HT/PER
                 (UTC) (F)     (DEG/KT/KT) (MB)    (FT/S)
DEVILS ISLAND    1000   20      30/ 16/ 21 1016.8R
SAXON HARBOR     0930   21      60/ 11/ 19 1013.5R
$$

LMZ867-665-643>646-191100-
LAKE MICHIGAN

STATION/POSITION TIME  TEMP    WIND        PRES    WAVE
                       AIR SEA DIR/SP/G            HT/PER
                 (UTC) (F)     (DEG/KT/KT) (MB)    (FT/S)
NORTHPORT PIER   0940   35                 1010.2F
KEWAUNEE LAKESHO 0954   35     180/  8/  9 1009.0F
SHEBOYGAN LAKESH 1000   35     180/ 13/ 15 1010.0F
PORT WASHINGTON  0930   34     190/  4/  5 1010.8F
MILWAUKEE LAKESH 1000   38     200/  7/  7   N/A
KENOSHA   LAKESH 1000   41     210/  5/  9 1010.8
$$

TC  - TEMPERATURE IN CELSIUS
VSB - VISIBILITY IN STATUTE MILES
WCI - WIND CHILL INDEX
HX  - HEAT INDEX





USA.gov is the U.S. government's official web portal to all federal, state and local government web resources and services.